COSMOS 413

Satellite information

Favourite Embed

Satellite Type and Status

PAYLOADIN ORBIT

Key statistics

Satellite COSMOS 413 at a glance.

Uptime

19726

Days in orbit

Revolutions

≈ 12.4

Per day

Orbit

LEO

Low Earth Orbit

Inclination

74.0

Latest

Satellite identification and parameters

Extended collection of information and parameters for COSMOS 413.

Object identification

Identified? True

Debris? False

Object name: COSMOS 413

International designator: 1971-041C

Object number (NORAD): 5212

Object ID (CCSDS): 5212

Country: COMMONWEALTH OF INDEPENDENT STATES (CIS)

Current information (Y/N): Y

RCS size: MEDIUM

Orbital parameters

Period: 115.77 minutes

Inclination: 74.0144 deg

SMA: 7868.476 km

Apoapsis: 1506.757 km

Periapsis: 1473.925 km

RAAN: 80.4752 deg

Eccentricy: 0.0020863

Argument of periapsis: 78.8855 deg

Mean anomaly: 341.7069 deg

Mean motion: 12.43846625 rev/day

Mean motion (dot): -0.0000001 rev/day2

B* drag term: 0.000040863 1/REarth

Two-line elements (TLE)

Creation date: May 8, 2025, 3:01 a.m.

Reference frame: TEME

Reference center: EARTH

Epoch: May 7, 2025, 8:53 p.m. UTC

TLE line 0: 0 COSMOS 413

TLE line 1: 1 05212U 71041C 25127.87058940 -.00000010 00000-0 40863-4 0 9998

TLE line 2: 2 05212 74.0144 80.4752 0020863 78.8855 341.7069 12.43846625452077

Live tracking on map

Real-time ground track for satellite COSMOS 413.

In-orbit conjunctions

There are no conjunctions computed for COSMOS 413, at the moment. Check back to stay up to date, as we update our databases every day.

Go to all conjunctions

Associated space launch

Military communications satellites

COSMOS 413 was lifted into orbit during the mission ‘Kosmos-3M | Strela-1M 9-16’, on board a Kosmos-3M space rocket.

The launch took place on May 7, 1971, 2:20 p.m. from 132/1 (132L).

For more information about the launch, click the button.

Launch to space Kosmos-3M | Strela-1M 9-16
Kosmos-3M | Strela-1M 9-16

Agency: N/A

Status: Launch Successful

Launch date: May 7, 1971, 2:20 p.m. UTC

Rocket: Kosmos-3M

Launch pad: 132/1 (132L)

Location: Plesetsk Cosmodrome, Russian Federation

...

Latest news about this satellite

There are no fresh news available about this satellite. Check back as we update our databases every day.


Newsletter sign-up

Weekly statistics, charts and insights to help you stay on top of the space industry.